ProjectID,Date,Electric Generation,Electric Utility Import,Facility Electric Load
,YYYY-MM-DD,kW,kW,kW
507,2017-08-01,0.0,,0.0
507,2017-08-02,0.0,,0.0
507,2017-08-03,0.0,,0.0
507,2017-08-04,0.0,,0.0
507,2017-08-05,0.0,,0.0
507,2017-08-06,0.0,,0.0
507,2017-08-07,0.0,,0.0
507,2017-08-08,0.0,,0.0
507,2017-08-09,0.0,,0.0
507,2017-08-10,0.0,,0.0
507,2017-08-11,0.0,,0.0
507,2017-08-12,0.0,,0.0
507,2017-08-13,0.0,,0.0
507,2017-08-14,0.0,,0.0
507,2017-08-15,0.0,,0.0
507,2017-08-16,78.78541666666668,,78.78541666666668
507,2017-08-17,95.34916666666665,,95.34916666666665
507,2017-08-18,27.182499999999994,,27.182499999999994
507,2017-08-19,87.02583333333332,,87.02583333333332
507,2017-08-20,95.83125000000001,,95.83125000000001
507,2017-08-21,75.19999999999999,,75.19999999999999
507,2017-08-22,86.27458333333334,,86.27458333333334
507,2017-08-23,91.84875,,91.84875
507,2017-08-24,97.30291666666666,,97.30291666666666
507,2017-08-25,76.87791666666666,,76.87791666666666
507,2017-08-26,94.97750000000002,,94.97750000000002
507,2017-08-27,94.54208333333334,,94.54208333333334
507,2017-08-28,84.43416666666668,,84.43416666666668
507,2017-08-29,19.627916666666668,,19.627916666666668
507,2017-08-30,95.89499999999998,,95.89499999999998
507,2017-08-31,70.46083333333333,,70.46083333333333
507,2017-09-01,96.94999999999999,,96.94999999999999
507,2017-09-02,55.69333333333333,,55.69333333333333
507,2017-09-03,30.550833333333333,,30.550833333333333
507,2017-09-04,90.5025,,90.5025
507,2017-09-05,82.86874999999999,,82.86874999999999
507,2017-09-06,12.996249999999998,,12.996249999999998
507,2017-09-07,77.75625000000001,,77.75625000000001
507,2017-09-08,75.765,,75.765
507,2017-09-09,86.52041666666666,,86.52041666666666
507,2017-09-10,86.33791666666667,,86.33791666666667
507,2017-09-11,83.60666666666665,,83.60666666666665
507,2017-09-12,71.22458333333331,,71.22458333333331
507,2017-09-13,62.66249999999999,,62.66249999999999
507,2017-09-14,30.941249999999997,,30.941249999999997
507,2017-09-15,48.01791666666667,,48.01791666666667
507,2017-09-16,58.01333333333333,,58.01333333333333
507,2017-09-17,51.51624999999999,,51.51624999999999
507,2017-09-18,33.2275,,33.2275
507,2017-09-19,37.32541666666667,,37.32541666666667
507,2017-09-20,52.70083333333334,,52.70083333333334
507,2017-09-21,46.067083333333336,,46.067083333333336
507,2017-09-22,75.17833333333333,,75.17833333333333
507,2017-09-23,77.90333333333332,,77.90333333333332
507,2017-09-24,72.81583333333333,,72.81583333333333
507,2017-09-25,71.21625,,71.21625
507,2017-09-26,66.96708333333333,,66.96708333333333
507,2017-09-27,70.94541666666667,,70.94541666666667
507,2017-09-28,77.11833333333334,,77.11833333333334
507,2017-09-29,56.526666666666664,,56.526666666666664
507,2017-09-30,43.86750000000001,,43.86750000000001
507,2017-10-01,75.82333333333334,,75.82333333333334
507,2017-10-02,73.87375,,73.87375
507,2017-10-03,61.20375000000001,,61.20375000000001
507,2017-10-04,70.15333333333335,,70.15333333333335
507,2017-10-05,52.84416666666667,,52.84416666666667
507,2017-10-06,59.102916666666665,,59.102916666666665
507,2017-10-07,50.38,,50.38
507,2017-10-08,15.051666666666668,,15.051666666666668
507,2017-10-09,6.730833333333333,,6.730833333333333
507,2017-10-10,59.60999999999999,,59.60999999999999
507,2017-10-11,43.268333333333324,,43.268333333333324
507,2017-10-12,48.47291666666666,,48.47291666666666
507,2017-10-13,57.208333333333336,,57.208333333333336
507,2017-10-14,29.835000000000004,,29.835000000000004
507,2017-10-15,27.941666666666663,,27.941666666666663
507,2017-10-16,32.56875,,32.56875
507,2017-10-17,64.35541666666668,,64.35541666666668
507,2017-10-18,59.427083333333336,,59.427083333333336
507,2017-10-19,60.59291666666667,,60.59291666666667
507,2017-10-20,59.09374999999999,,59.09374999999999
507,2017-10-21,55.19625,,55.19625
507,2017-10-22,53.86291666666667,,53.86291666666667
507,2017-10-23,32.4325,,32.4325
507,2017-10-24,11.3125,,11.3125
507,2017-10-25,18.199166666666667,,18.199166666666667
507,2017-10-26,21.222916666666666,,21.222916666666666
507,2017-10-27,53.74833333333333,,53.74833333333333
507,2017-10-28,49.05083333333334,,49.05083333333334
507,2017-10-29,4.1450000000000005,,4.1450000000000005
507,2017-10-30,40.18083333333333,,40.18083333333333
507,2017-10-31,49.968333333333334,,49.968333333333334
507,2017-11-01,12.332083333333335,,12.332083333333335
507,2017-11-02,40.63833333333333,,40.63833333333333
507,2017-11-03,39.06791666666667,,39.06791666666667
507,2017-11-04,40.37541666666666,,40.37541666666666
507,2017-11-05,10.665000000000001,,10.665000000000001
507,2017-11-06,8.999583333333334,,8.999583333333334
507,2017-11-07,19.031250000000004,,19.031250000000004
507,2017-11-08,24.91,,24.91
507,2017-11-09,40.882083333333334,,40.882083333333334
507,2017-11-10,40.95875,,40.95875
507,2017-11-11,47.94,,47.94
507,2017-11-12,39.31708333333333,,39.31708333333333
507,2017-11-13,17.482916666666664,,17.482916666666664
507,2017-11-14,14.92875,,14.92875
507,2017-11-15,36.79,,36.79
507,2017-11-16,23.238749999999996,,23.238749999999996
507,2017-11-17,43.32,,43.32
507,2017-11-18,12.714999999999998,,12.714999999999998
507,2017-11-19,27.79291666666667,,27.79291666666667
507,2017-11-20,34.76166666666667,,34.76166666666667
507,2017-11-21,37.626250000000006,,37.626250000000006
507,2017-11-22,11.584583333333333,,11.584583333333333
507,2017-11-23,40.61875,,40.61875
507,2017-11-24,37.727916666666665,,37.727916666666665
507,2017-11-25,35.949583333333344,,35.949583333333344
507,2017-11-26,32.057916666666664,,32.057916666666664
507,2017-11-27,36.92666666666666,,36.92666666666666
507,2017-11-28,34.86666666666667,,34.86666666666667
507,2017-11-29,34.36,,34.36
507,2017-11-30,27.448333333333334,,27.448333333333334
507,2017-12-01,32.44833333333333,,32.44833333333333
507,2017-12-02,31.739583333333332,,31.739583333333332
507,2017-12-03,13.24375,,13.24375
507,2017-12-04,31.562916666666666,,31.562916666666666
507,2017-12-05,5.999583333333334,,5.999583333333334
507,2017-12-06,24.10875,,24.10875
507,2017-12-07,35.26208333333333,,35.26208333333333
507,2017-12-08,17.938333333333333,,17.938333333333333
507,2017-12-09,0.72375,,0.72375
507,2017-12-10,0.11916666666666666,,0.11916666666666666
507,2017-12-11,0.4675,,0.4675
507,2017-12-12,2.9791666666666665,,2.9791666666666665
507,2017-12-13,27.815416666666668,,27.815416666666668
507,2017-12-14,2.1958333333333333,,2.1958333333333333
507,2017-12-15,2.8550000000000004,,2.8550000000000004
507,2017-12-16,1.15875,,1.15875
507,2017-12-17,1.3220833333333333,,1.3220833333333333
507,2017-12-18,10.632916666666667,,10.632916666666667
507,2017-12-19,22.345416666666665,,22.345416666666665
507,2017-12-20,22.468333333333334,,22.468333333333334
507,2017-12-21,32.8575,,32.8575
507,2017-12-22,5.8525,,5.8525
507,2017-12-23,1.9433333333333334,,1.9433333333333334
507,2017-12-24,19.962083333333336,,19.962083333333336
507,2017-12-25,3.654166666666667,,3.654166666666667
507,2017-12-26,14.530833333333334,,14.530833333333334
507,2017-12-27,27.403333333333336,,27.403333333333336
507,2017-12-28,31.726250000000004,,31.726250000000004
507,2017-12-29,29.727499999999996,,29.727499999999996
507,2017-12-30,1.3083333333333331,,1.3083333333333331
507,2017-12-31,5.729166666666667,,5.729166666666667
507,2018-01-01,15.068749999999996,,15.068749999999996
507,2018-01-02,21.667083333333334,,21.667083333333334
507,2018-01-03,22.245416666666667,,22.245416666666667
507,2018-01-04,2.842916666666667,,2.842916666666667
507,2018-01-05,37.07125,,37.07125
507,2018-01-06,38.09625,,38.09625
507,2018-01-07,37.35875,,37.35875
507,2018-01-08,17.2775,,17.2775
507,2018-01-09,32.69125,,32.69125
507,2018-01-10,35.7475,,35.7475
507,2018-01-11,16.489583333333336,,16.489583333333336
507,2018-01-12,2.6283333333333334,,2.6283333333333334
507,2018-01-13,38.30458333333333,,38.30458333333333
507,2018-01-14,42.41625,,42.41625
507,2018-01-15,22.258750000000003,,22.258750000000003
507,2018-01-16,15.147916666666667,,15.147916666666667
507,2018-01-17,2.995416666666667,,2.995416666666667
507,2018-01-18,19.054999999999996,,19.054999999999996
507,2018-01-19,27.835416666666664,,27.835416666666664
507,2018-01-20,39.73791666666667,,39.73791666666667
507,2018-01-21,34.39333333333334,,34.39333333333334
507,2018-01-22,20.87708333333333,,20.87708333333333
507,2018-01-23,13.09875,,13.09875
507,2018-01-24,40.305,,40.305
507,2018-01-25,47.57666666666666,,47.57666666666666
507,2018-01-26,45.156666666666666,,45.156666666666666
507,2018-01-27,37.28874999999999,,37.28874999999999
507,2018-01-28,12.129583333333334,,12.129583333333334
507,2018-01-29,27.238333333333333,,27.238333333333333
507,2018-01-30,1.4983333333333333,,1.4983333333333333
507,2018-01-31,17.014166666666668,,17.014166666666668
507,2018-02-01,22.648750000000003,,22.648750000000003
507,2018-02-02,29.489999999999995,,29.489999999999995
507,2018-02-03,49.67958333333333,,49.67958333333333
507,2018-02-04,18.87625,,18.87625
507,2018-02-05,55.66708333333333,,55.66708333333333
507,2018-02-06,21.92,,21.92
507,2018-02-07,2.0404166666666668,,2.0404166666666668
507,2018-02-08,44.254583333333336,,44.254583333333336
507,2018-02-09,28.396666666666665,,28.396666666666665
507,2018-02-10,17.672083333333333,,17.672083333333333
507,2018-02-11,7.213750000000001,,7.213750000000001
507,2018-02-12,25.854166666666668,,25.854166666666668
507,2018-02-13,60.04624999999999,,60.04624999999999
507,2018-02-14,38.8375,,38.8375
507,2018-02-15,24.793333333333337,,24.793333333333337
507,2018-02-16,16.671666666666667,,16.671666666666667
507,2018-02-17,48.80249999999999,,48.80249999999999
507,2018-02-18,0.3904166666666667,,0.3904166666666667
507,2018-02-19,1.1420833333333333,,1.1420833333333333
507,2018-02-20,42.19541666666667,,42.19541666666667
507,2018-02-21,51.16125,,51.16125
507,2018-02-22,7.576249999999999,,7.576249999999999
507,2018-02-23,9.422500000000001,,9.422500000000001
507,2018-02-24,27.330416666666665,,27.330416666666665
507,2018-02-25,9.327916666666667,,9.327916666666667
507,2018-02-26,32.05458333333333,,32.05458333333333
507,2018-02-27,70.55583333333334,,70.55583333333334
507,2018-02-28,62.96208333333333,,62.96208333333333
507,2018-03-01,38.13958333333333,,38.13958333333333
507,2018-03-02,5.5008333333333335,,5.5008333333333335
507,2018-03-03,47.486250000000005,,47.486250000000005
507,2018-03-04,26.454166666666666,,26.454166666666666
507,2018-03-05,0.0,,0.0
507,2018-03-06,0.0,,0.0
507,2018-03-07,0.0,,0.0
507,2018-03-08,0.0,,0.0
507,2018-03-09,0.0,,0.0
507,2018-03-10,0.0,,0.0
507,2018-03-11,0.0,,0.0
507,2018-03-12,0.0,,0.0
507,2018-03-13,0.0,,0.0
507,2018-03-14,0.0,,0.0
507,2018-03-15,0.0,,0.0
507,2018-03-16,0.0,,0.0
507,2018-03-17,0.0,,0.0
507,2018-03-18,0.0,,0.0
507,2018-03-19,0.0,,0.0
507,2018-03-20,0.0,,0.0
507,2018-03-21,0.0,,0.0
507,2018-03-22,0.0,,0.0
507,2018-03-23,0.0,,0.0
507,2018-03-24,0.0,,0.0
507,2018-03-25,0.0,,0.0
507,2018-03-26,0.0,,0.0
507,2018-03-27,0.0,,0.0
507,2018-03-28,0.0,,0.0
507,2018-03-29,0.0,,0.0
507,2018-03-30,0.0,,0.0
507,2018-03-31,0.0,,0.0
507,2018-04-01,0.0,,0.0
507,2018-04-02,0.0,,0.0
507,2018-04-03,0.0,,0.0
507,2018-04-04,0.0,,0.0
507,2018-04-05,0.0,,0.0
507,2018-04-06,0.0,,0.0
507,2018-04-07,0.0,,0.0
507,2018-04-08,0.0,,0.0
507,2018-04-09,0.0,,0.0
507,2018-04-10,0.0,,0.0
507,2018-04-11,0.0,,0.0
507,2018-04-12,0.0,,0.0
507,2018-04-13,0.0,,0.0
507,2018-04-14,0.0,,0.0
507,2018-04-15,0.0,,0.0
507,2018-04-16,0.0,,0.0
507,2018-04-17,0.0,,0.0
507,2018-04-18,0.0,,0.0
507,2018-04-19,0.0,,0.0
507,2018-04-20,0.0,,0.0
507,2018-04-21,0.0,,0.0
507,2018-04-22,0.0,,0.0
507,2018-04-23,0.0,,0.0
507,2018-04-24,0.0,,0.0
507,2018-04-25,0.0,,0.0
507,2018-04-26,0.0,,0.0
507,2018-04-27,0.0,,0.0
507,2018-04-28,0.0,,0.0
507,2018-04-29,0.0,,0.0
507,2018-04-30,0.0,,0.0
507,2018-05-01,0.0,,0.0
507,2018-05-02,0.0,,0.0
507,2018-05-03,0.0,,0.0
507,2018-05-04,0.0,,0.0
507,2018-05-05,0.0,,0.0
507,2018-05-06,0.0,,0.0
507,2018-05-07,0.0,,0.0
507,2018-05-08,0.0,,0.0
507,2018-05-09,65.12750000000001,,65.12750000000001
507,2018-05-10,63.970416666666665,,63.970416666666665
507,2018-05-11,86.56625000000001,,86.56625000000001
507,2018-05-12,13.881666666666662,,13.881666666666662
507,2018-05-13,20.007499999999997,,20.007499999999997
507,2018-05-14,54.70416666666667,,54.70416666666667
507,2018-05-15,69.96708333333332,,69.96708333333332
507,2018-05-16,16.122916666666665,,16.122916666666665
507,2018-05-17,36.2175,,36.2175
507,2018-05-18,45.227083333333326,,45.227083333333326
507,2018-05-19,17.388749999999998,,17.388749999999998
507,2018-05-20,55.18499999999998,,55.18499999999998
507,2018-05-21,95.1829166666667,,95.1829166666667
507,2018-05-22,26.18291666666666,,26.18291666666666
507,2018-05-23,79.49625,,79.49625
507,2018-05-24,94.68833333333335,,94.68833333333335
507,2018-05-25,90.76375000000003,,90.76375000000003
507,2018-05-26,76.07583333333334,,76.07583333333334
507,2018-05-27,12.988333333333332,,12.988333333333332
507,2018-05-28,49.76875000000001,,49.76875000000001
507,2018-05-29,86.8266666666667,,86.8266666666667
507,2018-05-30,74.56374999999998,,74.56374999999998
507,2018-05-31,31.641666666666666,,31.641666666666666
507,2018-06-01,62.062916666666666,,62.062916666666666
507,2018-06-02,76.675,,76.675
507,2018-06-03,62.28583333333333,,62.28583333333333
507,2018-06-04,61.84250000000001,,61.84250000000001
507,2018-06-05,64.59249999999999,,64.59249999999999
507,2018-06-06,62.980416666666656,,62.980416666666656
507,2018-06-07,70.27625,,70.27625
507,2018-06-08,76.47458333333333,,76.47458333333333
507,2018-06-09,83.23416666666667,,83.23416666666667
507,2018-06-10,44.00125,,44.00125
507,2018-06-11,88.76833333333333,,88.76833333333333
507,2018-06-12,98.6104166666667,,98.6104166666667
507,2018-06-13,27.18208333333334,,27.18208333333334
507,2018-06-14,97.87125000000005,,97.87125000000005
507,2018-06-15,65.22208333333333,,65.22208333333333
507,2018-06-16,92.99875000000003,,92.99875000000003
507,2018-06-17,90.84500000000001,,90.84500000000001
507,2018-06-18,84.48541666666665,,84.48541666666665
507,2018-06-19,90.66125000000001,,90.66125000000001
507,2018-06-20,49.32958333333334,,49.32958333333334
507,2018-06-21,49.74625,,49.74625
507,2018-06-22,40.908750000000005,,40.908750000000005
507,2018-06-23,13.579999999999998,,13.579999999999998
507,2018-06-24,33.60124999999999,,33.60124999999999
507,2018-06-25,54.07666666666666,,54.07666666666666
507,2018-06-26,58.386666666666684,,58.386666666666684
507,2018-06-27,19.187083333333337,,19.187083333333337
507,2018-06-28,29.980833333333322,,29.980833333333322
507,2018-06-29,51.6525,,51.6525
507,2018-06-30,53.95583333333334,,53.95583333333334
507,2018-07-01,44.81916666666667,,44.81916666666667
507,2018-07-02,53.405833333333334,,53.405833333333334
507,2018-07-03,33.099999999999994,,33.099999999999994
507,2018-07-04,39.002916666666664,,39.002916666666664
507,2018-07-05,44.29083333333333,,44.29083333333333
507,2018-07-06,17.10833333333333,,17.10833333333333
507,2018-07-07,58.690000000000005,,58.690000000000005
507,2018-07-08,57.016249999999985,,57.016249999999985
507,2018-07-09,54.98500000000001,,54.98500000000001
507,2018-07-10,80.48916666666666,,80.48916666666666
507,2018-07-11,74.64375,,74.64375
507,2018-07-12,28.42541666666666,,28.42541666666666
507,2018-07-13,86.34958333333334,,86.34958333333334
507,2018-07-14,79.58,,79.58
507,2018-07-15,56.83083333333334,,56.83083333333334
507,2018-07-16,74.38875,,74.38875
507,2018-07-17,37.34291666666667,,37.34291666666667
507,2018-07-18,89.48625,,89.48625
507,2018-07-19,94.59291666666667,,94.59291666666667
507,2018-07-20,92.37666666666667,,92.37666666666667
507,2018-07-21,73.30208333333333,,73.30208333333333
507,2018-07-22,40.1075,,40.1075
507,2018-07-23,41.53791666666667,,41.53791666666667
507,2018-07-24,65.56375,,65.56375
507,2018-07-25,25.43916666666666,,25.43916666666666
507,2018-07-26,63.31916666666666,,63.31916666666666
507,2018-07-27,65.615,,65.615
507,2018-07-28,69.18666666666667,,69.18666666666667
507,2018-07-29,76.91625,,76.91625
507,2018-07-30,40.74041666666666,,40.74041666666666
507,2018-07-31,73.16791666666666,,73.16791666666666
507,2018-08-01,46.9375,,46.9375
507,2018-08-02,63.150416666666665,,63.150416666666665
507,2018-08-03,48.51124999999999,,48.51124999999999
507,2018-08-04,49.934999999999995,,49.934999999999995
507,2018-08-05,75.36791666666666,,75.36791666666666
507,2018-08-06,78.39666666666666,,78.39666666666666
507,2018-08-07,62.337500000000006,,62.337500000000006
507,2018-08-08,69.24166666666666,,69.24166666666666
507,2018-08-09,79.00666666666665,,79.00666666666665
507,2018-08-10,73.68374999999999,,73.68374999999999
507,2018-08-11,17.62583333333333,,17.62583333333333
507,2018-08-12,50.26000000000001,,50.26000000000001
507,2018-08-13,12.842916666666666,,12.842916666666666
507,2018-08-14,52.794166666666655,,52.794166666666655
507,2018-08-15,73.77541666666666,,73.77541666666666
507,2018-08-16,74.49708333333334,,74.49708333333334
507,2018-08-17,57.26458333333334,,57.26458333333334
507,2018-08-18,55.01999999999999,,55.01999999999999
507,2018-08-19,23.675416666666663,,23.675416666666663
507,2018-08-20,44.48041666666666,,44.48041666666666
507,2018-08-21,74.24333333333334,,74.24333333333334
507,2018-08-22,59.62208333333333,,59.62208333333333
507,2018-08-23,78.59916666666666,,78.59916666666666
507,2018-08-24,74.03416666666665,,74.03416666666665
507,2018-08-25,60.849166666666655,,60.849166666666655
507,2018-08-26,60.03291666666666,,60.03291666666666
507,2018-08-27,61.95666666666667,,61.95666666666667
507,2018-08-28,71.42375,,71.42375
507,2018-08-29,69.82333333333334,,69.82333333333334
507,2018-08-30,68.31041666666665,,68.31041666666665
507,2018-08-31,28.956666666666663,,28.956666666666663
507,2018-09-01,46.68875,,46.68875
507,2018-09-02,49.5925,,49.5925
507,2018-09-03,64.59375,,64.59375
507,2018-09-04,65.21083333333333,,65.21083333333333
507,2018-09-05,47.77166666666667,,47.77166666666667
507,2018-09-06,54.77291666666665,,54.77291666666665
507,2018-09-07,18.936249999999998,,18.936249999999998
507,2018-09-08,22.761666666666667,,22.761666666666667
507,2018-09-09,15.260416666666663,,15.260416666666663
507,2018-09-10,10.449583333333333,,10.449583333333333
507,2018-09-11,25.627499999999994,,25.627499999999994
507,2018-09-12,17.514166666666668,,17.514166666666668
507,2018-09-13,35.97958333333333,,35.97958333333333
507,2018-09-14,28.694999999999993,,28.694999999999993
507,2018-09-15,55.82708333333333,,55.82708333333333
507,2018-09-16,66.22916666666667,,66.22916666666667
507,2018-09-17,30.051666666666662,,30.051666666666662
507,2018-09-18,16.091249999999995,,16.091249999999995
507,2018-09-19,52.01291666666666,,52.01291666666666
507,2018-09-20,44.32583333333333,,44.32583333333333
507,2018-09-21,18.047916666666666,,18.047916666666666
507,2018-09-22,47.92291666666667,,47.92291666666667
507,2018-09-23,24.891666666666662,,24.891666666666662
507,2018-09-24,37.43541666666666,,37.43541666666666
507,2018-09-25,2.6870833333333333,,2.6870833333333333
507,2018-09-26,33.56041666666666,,33.56041666666666
507,2018-09-27,58.46458333333334,,58.46458333333334
507,2018-09-28,21.84375,,21.84375
507,2018-09-29,58.026666666666664,,58.026666666666664
507,2018-09-30,54.46541666666667,,54.46541666666667
507,2018-10-01,24.917499999999993,,24.917499999999993
507,2018-10-02,37.20875,,37.20875
507,2018-10-03,49.70458333333332,,49.70458333333332
507,2018-10-04,32.98166666666666,,32.98166666666666
507,2018-10-05,47.82416666666666,,47.82416666666666
507,2018-10-06,11.939999999999998,,11.939999999999998
507,2018-10-07,25.040416666666662,,25.040416666666662
507,2018-10-08,7.377083333333334,,7.377083333333334
507,2018-10-09,27.292499999999993,,27.292499999999993
507,2018-10-10,42.63708333333333,,42.63708333333333
507,2018-10-11,12.505416666666664,,12.505416666666664
507,2018-10-12,61.29416666666666,,61.29416666666666
507,2018-10-13,39.70166666666666,,39.70166666666666
507,2018-10-14,44.38374999999999,,44.38374999999999
507,2018-10-15,8.678750000000003,,8.678750000000003
507,2018-10-16,55.98916666666668,,55.98916666666668
507,2018-10-17,50.55333333333334,,50.55333333333334
507,2018-10-18,65.14541666666666,,65.14541666666666
507,2018-10-19,53.31666666666666,,53.31666666666666
507,2018-10-20,42.0825,,42.0825
507,2018-10-21,55.63125,,55.63125
507,2018-10-22,32.73208333333333,,32.73208333333333
507,2018-10-23,50.474999999999994,,50.474999999999994
507,2018-10-24,44.080833333333324,,44.080833333333324
507,2018-10-25,55.421249999999986,,55.421249999999986
507,2018-10-26,37.0875,,37.0875
507,2018-10-27,13.019999999999998,,13.019999999999998
507,2018-10-28,27.56208333333333,,27.56208333333333
507,2018-10-29,21.423749999999995,,21.423749999999995
507,2018-10-30,53.38499999999999,,53.38499999999999
507,2018-10-31,46.91291666666666,,46.91291666666666
507,2018-11-01,38.699999999999996,,38.699999999999996
507,2018-11-02,8.788333333333332,,8.788333333333332
507,2018-11-03,33.34499999999999,,33.34499999999999
507,2018-11-04,49.72749999999999,,49.72749999999999
507,2018-11-05,9.289583333333333,,9.289583333333333
507,2018-11-06,6.067916666666666,,6.067916666666666
507,2018-11-07,40.517083333333325,,40.517083333333325
507,2018-11-08,43.17666666666667,,43.17666666666667
507,2018-11-09,11.65958333333333,,11.65958333333333
507,2018-11-10,39.41374999999999,,39.41374999999999
507,2018-11-11,46.348749999999995,,46.348749999999995
507,2018-11-12,36.44916666666666,,36.44916666666666
507,2018-11-13,12.083749999999997,,12.083749999999997
507,2018-11-14,45.447916666666664,,45.447916666666664
507,2018-11-15,7.869999999999998,,7.869999999999998
507,2018-11-16,1.0091666666666668,,1.0091666666666668
507,2018-11-17,18.903333333333332,,18.903333333333332
507,2018-11-18,17.080833333333327,,17.080833333333327
507,2018-11-19,24.189999999999998,,24.189999999999998
507,2018-11-20,17.08125,,17.08125
507,2018-11-21,24.82083333333333,,24.82083333333333
507,2018-11-22,42.03666666666667,,42.03666666666667
507,2018-11-23,40.75333333333332,,40.75333333333332
507,2018-11-24,16.094166666666663,,16.094166666666663
507,2018-11-25,31.447499999999994,,31.447499999999994
507,2018-11-26,5.449999999999999,,5.449999999999999
507,2018-11-27,24.71375,,24.71375
507,2018-11-28,18.06208333333333,,18.06208333333333
507,2018-11-29,36.95875,,36.95875
507,2018-11-30,12.080416666666665,,12.080416666666665
507,2018-12-01,31.46875,,31.46875
507,2018-12-02,8.240416666666667,,8.240416666666667
507,2018-12-03,23.07958333333333,,23.07958333333333
507,2018-12-04,32.69499999999999,,32.69499999999999
507,2018-12-05,27.303749999999994,,27.303749999999994
507,2018-12-06,29.68124999999999,,29.68124999999999
507,2018-12-07,32.301249999999996,,32.301249999999996
507,2018-12-08,29.197916666666668,,29.197916666666668
507,2018-12-09,21.951666666666664,,21.951666666666664
507,2018-12-10,34.09833333333333,,34.09833333333333
507,2018-12-11,29.022499999999994,,29.022499999999994
507,2018-12-12,24.832916666666662,,24.832916666666662
507,2018-12-13,7.7108333333333325,,7.7108333333333325
507,2018-12-14,9.868750000000002,,9.868750000000002
507,2018-12-15,7.951249999999999,,7.951249999999999
507,2018-12-16,3.6566666666666676,,3.6566666666666676
507,2018-12-17,18.539999999999992,,18.539999999999992
507,2018-12-18,34.141666666666666,,34.141666666666666
507,2018-12-19,29.527916666666666,,29.527916666666666
507,2018-12-20,16.718749999999996,,16.718749999999996
507,2018-12-21,3.5037500000000006,,3.5037500000000006
507,2018-12-22,20.95333333333333,,20.95333333333333
507,2018-12-23,32.65541666666666,,32.65541666666666
507,2018-12-24,19.441249999999997,,19.441249999999997
507,2018-12-25,30.228333333333328,,30.228333333333328